FALCON 9 R/B, 54028

Orbit data source: Space-Track

FALCON 9 R/B, 54028 is space debris in HEO originally from a launch on Sat, 08 Oct 2022 UTC launched from the Air Force Eastern Test Range (AFETR). Debris objects in space refer to the collection of defunct objects orbiting the Earth. Examples of debris include non-operational satellites, rocket bodies, and fragments generated from explosions, collisions, or faulty payload assembly.

Loading next visibility...
Identifier
54028, 2022-128C
Orbit
HEO
Country
Flag of USUS
Related business
Manufacturer
SpaceX
Mission
Spacecraft
Bus & Motor
F9ST2, Unknown motor
Mass
~4,000 kg wet, ~4,000 kg dry
Launch date (UTC)
2022-10-08 (4 years ago)
Launch vehicle
Unknown
Launch site
Air Force Eastern Test Range (AFETR)
Object type
Payload
Rocket body
Debris
Shape & HBR
Cyl, 7.8 m
Radar Cross Section
39.980 m², Large (>1 m²)

Expand to show TLE details & history
Last TLE update: 3 days ago

TLE from 3 days ago
0 FALCON 9 R/B
1 54028U 22128C   26170.22537875  .00010530  00000-0  82252-3 0  9990
2 54028  26.6936 172.4729 5726181 216.4547  85.8531  4.50345172 57557
Epoch: 2026-06-19T05:24Z
TLE epoch observation values (Epoch: 2026-06-19T05:24:32.723Z)
Latitude
0.00001°
Longitude
-176.14575°
Altitude
12,916.508 km
Speed
3.948 km/s
True Right ascension
11h 29m 47s
True Declination
0° 00' 00"
Sunlit
Object was in daylight at epoch
Visualization orbit readout
Latitude
Unknown
Longitude
Unknown
Altitude
Unknown
Speed
Unknown
Apparent Right ascension
Unknown
Apparent Declination
Unknown
Sunlit
N/A
Visualization observer readout
Local Sidereal Time
21:38:23
Azimuth
Unknown
Elevation
Unknown
Doppler factor
Unknown
Orbital elements
Apogee altitude
17,986.649 km
Perigee altitude
243.349 km
Semi-major axis
15,493.136 km
Eccentricity
0.57262
Inclination
26.6936°
RAAN
172.4729°
Arg. of periapsis
216.4547°
True anomaly
143.56749°
Mean anomaly
85.8531°
Eccentric anomaly
115.47245°
Mean motion
1.12547 °/min
Orbital period
319.87 mins
BSTAR
0.00082252
Loading maneuver chart data...
Computing Atmospheric mass density...
Loading historical data...
Loading historical data...
Loading historical data...
Loading historical data...
Loading historical data...
Loading historical data...
Loading historical data...
Other satellites on launch #128 in the year 2022 (2022-10-08 UTC)

Documentation

Showing up to 5 results
|